Weather History for Crossville, TN

Change the Weather History Date:

Friday, February 15, 2013

  Actual Average Record
Temperature  
Mean Temperature 38 °F 39 °F  
Max Temperature 46 °F 48 °F 72 °F (1989)
Min Temperature 30 °F 30 °F -3 °F (1960)
Degree Days  
Heating Degree Days 27    
Month to date heating degree days 385  
Since 1 July heating degree days 2775  
Cooling Degree Days 0    
Month to date cooling degree days 0  
Year to date cooling degree days 0  
Moisture  
Dew Point 31 °F    
Average Humidity 71    
Maximum Humidity 82    
Minimum Humidity 59    
Precipitation  
Precipitation 0.02 in 0.16 in 2.31 in (2003)
Month to date precipitation 1.35 2.38  
Year to date precipitation 8.48 7.14  
Sea Level Pressure  
Sea Level Pressure 30.07 in    
Wind  
Wind Speed 5 mph (West)    
Max Wind Speed 16 mph    
Max Gust Speed 22 mph    
Visibility 10 miles    
Events Rain    
T = Trace of Precipitation, MM = Missing Value Source: NWS Daily Summary

Daily Weather History Graph

Daily Weather History Graph

Search for Another Location

Airport:

Trip Planner

Search our weather history database for the weather conditions in past years. The results will help you decide how hot, cold, wet, or windy it might be!

Date:

Astronomy

Feb. 15, 2013 Rise Set
Actual Time 6:27 AM CST 5:22 PM CST
Civil Twilight 6:01 AM CST 5:48 PM CST
Nautical Twilight 5:31 AM CST 6:18 PM CST
Astronomical Twilight 5:01 AM CST 6:48 PM CST
Moon 9:15 AM CST (2/15) 11:08 PM CST (2/15)
Length of Visible Light 11h 47m
Length of Day
10h 54m
Waxing Crescent, 30% of the Moon is Illuminated
Feb 15
Waxing Crescent
Feb 17
First Quarter
Feb 25
Full
Mar 4
Last Quarter
Mar 11
New

Hourly Weather History & Observations

Time (CST) Temp. Windchill Dew Point Humidity Pressure Visibility Wind Dir Wind Speed Gust Speed Precip Events Conditions
12:53 AM 39.9 °F 37.8 °F 30.0 °F 68% 30.03 in 10.0 mi SW 3.5 mph - N/A   Clear
1:53 AM 37.0 °F 34.5 °F 30.0 °F 76% 30.03 in 10.0 mi SW 3.5 mph - N/A   Clear
2:53 AM 36.0 °F 33.3 °F 30.0 °F 79% 30.03 in 10.0 mi SW 3.5 mph - N/A   Clear
3:53 AM 37.0 °F 34.5 °F 30.0 °F 76% 30.02 in 10.0 mi SW 3.5 mph - N/A   Clear
4:53 AM 36.0 °F 33.3 °F 30.0 °F 79% 30.04 in 10.0 mi SSW 3.5 mph - N/A   Clear
5:53 AM 35.1 °F - 28.9 °F 78% 30.06 in 10.0 mi Calm Calm - N/A   Clear
6:53 AM 35.1 °F - 30.0 °F 82% 30.06 in 10.0 mi Calm Calm - N/A   Clear
7:53 AM 39.9 °F 37.8 °F 32.0 °F 73% 30.06 in 10.0 mi South 3.5 mph - N/A   Clear
8:53 AM 44.1 °F 38.6 °F 35.1 °F 71% 30.07 in 10.0 mi West 10.4 mph - N/A   Mostly Cloudy
9:53 AM 45.0 °F 39.7 °F 36.0 °F 71% 30.08 in 10.0 mi West 10.4 mph - N/A   Overcast
10:21 AM 44.6 °F 39.7 °F 35.6 °F 71% 30.07 in 10.0 mi West 9.2 mph - N/A   Overcast
10:46 AM 44.6 °F 40.2 °F 35.6 °F 71% 30.08 in 10.0 mi West 8.1 mph - N/A   Overcast
10:53 AM 44.1 °F 39.5 °F 35.1 °F 71% 30.09 in 10.0 mi West 8.1 mph - N/A   Overcast
11:31 AM 42.8 °F 37.5 °F 37.4 °F 81% 30.07 in 10.0 mi West 9.2 mph - 0.01 in   Overcast
11:53 AM 43.0 °F 37.7 °F 37.0 °F 80% 30.08 in 10.0 mi West 9.2 mph 18.4 mph 0.01 in   Overcast
12:11 PM 42.8 °F 37.0 °F 35.6 °F 76% 30.07 in 10.0 mi WNW 10.4 mph 19.6 mph 0.01 in   Overcast
12:53 PM 42.1 °F 36.1 °F 35.1 °F 76% 30.07 in 10.0 mi West 10.4 mph - 0.01 in   Overcast
1:09 PM 42.8 °F 37.0 °F 33.8 °F 70% 30.05 in 10.0 mi West 10.4 mph 17.3 mph N/A   Overcast
1:17 PM 42.8 °F 37.0 °F 35.6 °F 76% 30.05 in 10.0 mi West 10.4 mph - N/A   Overcast
1:53 PM 42.1 °F 37.7 °F 35.1 °F 76% 30.07 in 10.0 mi West 6.9 mph - 0.00 in   Overcast
2:38 PM 42.8 °F 38.6 °F 33.8 °F 70% 30.04 in 10.0 mi Variable 6.9 mph - N/A   Overcast
2:46 PM 42.8 °F 38.6 °F 33.8 °F 70% 30.05 in 10.0 mi WNW 6.9 mph - N/A   Overcast
2:53 PM 42.1 °F 37.7 °F 34.0 °F 73% 30.07 in 10.0 mi WNW 6.9 mph - N/A   Overcast
3:00 PM 42.8 °F 39.3 °F 33.8 °F 70% 30.05 in 10.0 mi WNW 5.8 mph - N/A   Overcast
3:53 PM 39.0 °F 31.8 °F 32.0 °F 76% 30.09 in 10.0 mi NNW 11.5 mph 21.9 mph 0.00 in Rain Light Rain
4:44 PM 39.2 °F 33.6 °F 28.4 °F 65% 30.07 in 10.0 mi NNW 8.1 mph - 0.00 in   Overcast
4:53 PM 39.0 °F 34.0 °F 28.9 °F 67% 30.09 in 10.0 mi NNW 6.9 mph - 0.00 in   Overcast
5:53 PM 37.0 °F - 25.0 °F 62% 30.11 in 10.0 mi Calm Calm - N/A   Mostly Cloudy
6:53 PM 33.1 °F - 26.1 °F 75% 30.12 in 10.0 mi Calm Calm - N/A   Clear
7:53 PM 35.1 °F - 26.1 °F 70% 30.11 in 10.0 mi Calm Calm - N/A   Overcast
8:53 PM 36.0 °F 31.1 °F 25.0 °F 64% 30.11 in 10.0 mi North 5.8 mph - N/A   Scattered Clouds
9:53 PM 35.1 °F 28.6 °F 25.0 °F 67% 30.10 in 10.0 mi North 8.1 mph - N/A   Partly Cloudy
10:53 PM 33.1 °F 26.1 °F 23.0 °F 66% 30.10 in 10.0 mi North 8.1 mph - N/A   Mostly Cloudy
11:53 PM 30.9 °F 25.2 °F 21.0 °F 67% 30.09 in 10.0 mi North 5.8 mph - N/A   Overcast